Location: La Brionne
(46.1728°N, 1.7849°E)
Time: 01:10:51
(UTC+00:00)

Geosat - Visible Passes

Search period start: 24 October 2021 00:00
Search period end: 03 November 2021 00:00
Orbit: 763 x 765 km, 108.0° (Epoch: 23 October)

Date Brightness Start Highest point End Pass type
(mag) Time Alt. Az. Time Alt. Az. Time Alt. Az.
24 Oct 6.6 04:34:09 10° ENE 04:36:31 13° NE 04:38:53 10° N visible
25 Oct 5.8 05:32:35 10° ESE 05:36:54 30° NE 05:41:13 10° N visible
26 Oct 6.5 04:57:25 10° E 05:00:30 17° NE 05:03:35 10° N visible
27 Oct 5.4 05:56:23 10° ESE 06:00:58 38° NE 06:05:36 10° NNW visible
28 Oct 6.3 05:20:52 10° E 05:24:30 21° NE 05:28:09 10° N visible
29 Oct 6.7 04:46:32 10° NE 04:48:14 12° NE 04:49:56 10° NNE visible
30 Oct 6.0 05:44:27 10° ESE 05:48:32 26° NE 05:52:37 10° N visible
31 Oct 6.5 05:09:33 10° ENE 05:12:11 14° NE 05:14:49 10° N visible
02 Nov 6.4 05:32:53 10° E 05:36:10 18° NE 05:39:28 10° N visible
